DW4657 West Bridgewater MA US current weather conditions

sailwx.info

Wind from 077

Air temperature 3.3° C
Dewpoint 2.0° C

Last reported at 2019-Dec-13 22:09 UTC.
Time now 2019-Dec-13 23:12 UTC

Location: N 42°02' W 071°02'.
View on Google Maps.

See reports from other nearby stations

  
Tides and Currents Weather Stations Pressure Air Temp Water Temp Dewpoint Dewpoint Depression Visibility Wind Speed Wind Dir Waves Ship Positions
date/time (UTC)wind fromknots sea level pressurealtimeterstation pressurevisibilityair tempwater tempwave heightnotes
2019-Dec-13 22:09 077 3.3
2019-Dec-13 21:59 078 3.3
2019-Dec-13 21:49 077 3.3
2019-Dec-13 21:39 076 3.3
2019-Dec-13 21:29 076 3.3
2019-Dec-13 21:19 076 3.3
2019-Dec-13 21:09 076 3.3
2019-Dec-13 20:59 076 3.3
2019-Dec-13 20:49 076 3.3
2019-Dec-13 20:39 076 3.3
2019-Dec-13 20:29 076 3.3
2019-Dec-13 20:19 076 3.3
2019-Dec-13 20:09 076 3.3
2019-Dec-13 19:59 076 3.3
2019-Dec-13 19:49 076 3.3
2019-Dec-13 19:39 076 3.3
2019-Dec-13 19:29 076 3.3
2019-Dec-13 19:19 076 3.3
2019-Dec-13 19:09 076 3.9
2019-Dec-13 18:59 076 3.9
2019-Dec-13 18:49 076 3.9
2019-Dec-13 18:39 076 3.9
2019-Dec-13 18:29 076 3.9
2019-Dec-13 18:19 076 3.9
2019-Dec-13 18:09 076 3.9
2019-Dec-13 17:59 076 3.9
2019-Dec-13 17:49 076 3.9
2019-Dec-13 17:39 076 3.9
2019-Dec-13 17:29 076 3.9
2019-Dec-13 17:19 076 3.9
2019-Dec-13 17:09 076 3.9
2019-Dec-13 16:59 076 3.9
2019-Dec-13 16:49 076 3.3
2019-Dec-13 16:39 089 3.3
2019-Dec-13 16:29 138 3.3
2019-Dec-13 16:19 161 3.3
2019-Dec-13 16:09 052 3.3
2019-Dec-13 15:59 081 2.8
2019-Dec-13 15:49 076 2.2
2019-Dec-13 15:39 072 0 gusting 1 1.7
2019-Dec-13 15:29 202 1.1
2019-Dec-13 15:19 203 1.1
2019-Dec-13 15:09 203 0.6
2019-Dec-13 14:59 203 0.6
2019-Dec-13 14:49 203 -0.0
2019-Dec-13 14:39 203 -0.6
2019-Dec-13 14:29 203 -1.1
2019-Dec-13 14:19 203 -1.1
2019-Dec-13 14:09 203 -2.2
2019-Dec-13 13:59 203 -2.8
2019-Dec-13 13:49 203 -3.3
2019-Dec-13 13:39 203 -3.9
2019-Dec-13 13:29 203 -3.9
2019-Dec-13 13:19 203 -4.4
2019-Dec-13 13:09 203 -5.0
2019-Dec-13 12:59 203 -5.0
2019-Dec-13 12:49 203 -5.6
2019-Dec-13 12:39 203 -5.6
2019-Dec-13 12:29 203 -5.6
2019-Dec-13 12:19 203 -5.6
2019-Dec-13 12:09 203 -5.6
2019-Dec-13 11:59 203 -6.1
2019-Dec-13 11:49 203 -6.1
2019-Dec-13 11:39 203 -6.1
2019-Dec-13 11:29 203 -6.1
2019-Dec-13 11:19 203 -6.1
2019-Dec-13 11:09 203 -6.1
2019-Dec-13 10:59 203 -5.6
2019-Dec-13 10:49 203 -5.6
2019-Dec-13 10:39 203 -5.6
2019-Dec-13 10:29 203 -5.6
2019-Dec-13 10:19 203 -6.1
2019-Dec-13 10:09 203 -6.1
2019-Dec-13 09:49 203 -6.7
2019-Dec-13 09:39 203 -6.7
2019-Dec-13 09:29 203 -6.7
2019-Dec-13 09:19 203 -6.7
2019-Dec-13 09:09 203 -6.7
2019-Dec-13 08:59 203 -6.7
2019-Dec-13 08:49 203 -6.7
2019-Dec-13 08:39 203 -6.7
2019-Dec-13 08:29 203 -7.2
2019-Dec-13 08:19 203 -7.2
2019-Dec-13 08:09 203 -7.2
2019-Dec-13 07:59 203 -7.8
2019-Dec-13 07:49 203 -7.8
2019-Dec-13 07:39 203 -7.8
2019-Dec-13 07:29 203 -7.8
2019-Dec-13 07:19 203 -7.8
2019-Dec-13 07:09 203 -7.8
2019-Dec-13 06:59 203 -7.8
2019-Dec-13 06:49 203 -7.2
2019-Dec-13 06:39 203 -7.8
2019-Dec-13 06:29 203 -7.2
2019-Dec-13 06:19 203 -7.2
2019-Dec-13 06:09 203 -7.8
2019-Dec-13 05:59 203 -7.2
2019-Dec-13 05:49 208 -7.8
2019-Dec-13 05:39 323 -7.2
2019-Dec-13 05:29 323 -7.2
2019-Dec-13 05:19 323 -7.8
2019-Dec-13 05:00 323 -7.8
2019-Dec-13 04:49 323 -7.8
2019-Dec-13 04:39 323 -7.8
2019-Dec-13 04:29 323 -7.8
2019-Dec-13 04:19 323 -7.2
2019-Dec-13 04:09 323 -7.2
2019-Dec-13 03:59 323 -7.2
2019-Dec-13 03:49 323 -7.2
2019-Dec-13 03:39 323 -7.2
2019-Dec-13 03:29 323 -7.2
2019-Dec-13 03:19 323 -7.2
2019-Dec-13 03:09 322 -6.7
2019-Dec-13 02:59 322 -6.7
2019-Dec-13 02:49 323 -6.7
2019-Dec-13 02:39 323 -6.7
2019-Dec-13 02:29 323 -6.7
2019-Dec-13 02:19 323 -6.7
2019-Dec-13 02:09 322 -6.1
2019-Dec-13 01:59 323 -6.1
2019-Dec-13 01:49 323 -6.1
2019-Dec-13 01:39 322 -5.6
2019-Dec-13 01:29 323 -6.1
2019-Dec-13 01:19 323 -6.1
2019-Dec-13 01:09 323 -6.1
2019-Dec-13 00:59 323 -5.6
2019-Dec-13 00:49 323 -5.6
2019-Dec-13 00:39 323 -5.6
2019-Dec-13 00:29 323 -5.6
2019-Dec-13 00:19 323 -5.6
2019-Dec-13 00:09 323 -5.6
2019-Dec-12 23:59 323 -5.6
2019-Dec-12 23:49 323 -5.6
2019-Dec-12 23:39 323 -5.6
2019-Dec-12 23:29 323 -5.6
2019-Dec-12 23:19 323 -5.6
2019-Dec-12 23:09 323 -5.6
2019-Dec-12 23:00 323 -5.0
2019-Dec-12 22:49 323 -5.0
2019-Dec-12 22:39 322 -5.0
2019-Dec-12 22:29 305 -5.0
2019-Dec-12 22:19 305 -4.4
2019-Dec-12 22:09 305 -4.4
2019-Dec-12 21:59 305 -3.9
2019-Dec-12 21:49 305 -3.9
2019-Dec-12 21:39 305 -3.9
2019-Dec-12 21:29 305 -3.3
2019-Dec-12 21:19 305 -2.8
2019-Dec-12 21:09 305 -2.8
2019-Dec-12 21:00 305 -2.2
2019-Dec-12 20:49 305 -2.2
2019-Dec-12 20:39 305 -1.7
2019-Dec-12 20:29 315 -1.7
2019-Dec-12 20:19 319 1 gusting 1 -1.1
2019-Dec-12 20:09 344 0 gusting 1 -1.1
2019-Dec-12 20:00 298 -0.6
2019-Dec-12 19:49 306 0 gusting 1 -0.6
2019-Dec-12 19:39 342 0 gusting 1 -0.6
2019-Dec-12 19:29 298 0 gusting 2 -0.6
2019-Dec-12 19:19 282 -0.0
2019-Dec-12 19:09 297 -0.0
2019-Dec-12 19:00 333 -0.0
2019-Dec-12 18:49 348 1 gusting 4 -0.6
2019-Dec-12 18:39 139 -0.0
2019-Dec-12 18:29 310 1 gusting 3 -1.1
2019-Dec-12 18:19 350 2 gusting 4 -1.1
2019-Dec-12 18:09 313 2 gusting 6 -1.1
2019-Dec-12 18:00 306 2 gusting 3 -0.6
2019-Dec-12 17:49 298 -1.1
2019-Dec-12 17:39 308 0 gusting 2 -1.1
2019-Dec-12 17:29 344 2 gusting 2 -1.1
2019-Dec-12 17:19 312 -1.1
2019-Dec-12 17:09 019 1 gusting 4 -1.7
2019-Dec-12 17:00 310 2 gusting 3 -1.7
2019-Dec-12 16:49 241 1 gusting 2 -1.7
2019-Dec-12 16:39 248 1 gusting 3 -1.7
2019-Dec-12 16:29 343 0 gusting 3 -1.7
2019-Dec-12 16:20 355 -1.7
2019-Dec-12 16:09 310 -1.7
2019-Dec-12 16:00 018 0 gusting 4 -2.2
2019-Dec-12 15:50 319 2 gusting 4 -2.2
2019-Dec-12 15:39 353 0 gusting 3 -2.2
2019-Dec-12 15:30 343 0 gusting 2 -2.2
2019-Dec-12 15:20 354 0 gusting 5 -2.8
2019-Dec-12 15:10 303 3 gusting 6 -2.8
2019-Dec-12 15:00 272 0 gusting 3 -2.8
2019-Dec-12 14:50 334 -2.8
2019-Dec-12 14:40 351 0 gusting 4 -3.3
2019-Dec-12 14:30 351 0 gusting 3 -3.3
2019-Dec-12 14:20 350 1 gusting 2 -3.3
2019-Dec-12 14:10 325 1 gusting 2 -3.3
2019-Dec-12 14:00 348 0 gusting 2 -3.9
2019-Dec-12 13:50 353 0 gusting 4 -4.4
2019-Dec-12 13:40 325 0 gusting 1 -4.4
2019-Dec-12 13:30 310 0 gusting 3 -5.0
2019-Dec-12 13:19 333 -5.0
2019-Dec-12 13:10 331 0 gusting 1 -5.6
2019-Dec-12 13:00 348 -6.1
2019-Dec-12 12:50 326 -6.1
2019-Dec-12 12:40 334 -6.7
2019-Dec-12 12:30 324 0 gusting 0 -7.2
2019-Dec-12 12:20 320 -7.2
2019-Dec-12 12:10 320 -6.7
2019-Dec-12 12:00 320 -6.7
2019-Dec-12 11:50 320 -6.1
2019-Dec-12 11:40 354 0 gusting 2 -6.1
2019-Dec-12 11:30 332 -6.1
2019-Dec-12 11:20 315 0 gusting 3 -6.1
2019-Dec-12 11:10 313 0 gusting 1 -6.1
2019-Dec-12 11:00 316 -5.6
2019-Dec-12 10:50 331 -5.6
2019-Dec-12 10:40 326 -5.6
2019-Dec-12 10:30 335 1 gusting 4 -5.6
2019-Dec-12 10:20 343 0 gusting 2 -5.6
2019-Dec-12 10:10 324 0 gusting 2 -5.6
2019-Dec-12 10:00 312 -5.6
2019-Dec-12 09:50 337 -5.6
2019-Dec-12 09:39 327 -5.6
2019-Dec-12 09:30 319 -5.0
2019-Dec-12 09:20 346 -5.0
2019-Dec-12 09:10 302 -5.0
2019-Dec-12 09:00 345 -5.0
2019-Dec-12 08:50 310 0 gusting 4 -5.0
2019-Dec-12 08:40 321 1 gusting 3 -5.0
2019-Dec-12 08:30 300 0 gusting 2 -5.0
2019-Dec-12 08:20 317 -5.0
2019-Dec-12 08:10 299 -5.0
2019-Dec-12 08:00 319 -4.4
2019-Dec-12 07:50 319 1 gusting 3 -4.4
2019-Dec-12 07:40 348 0 gusting 4 -4.4
2019-Dec-12 07:30 030 -4.4
2019-Dec-12 07:20 315 -4.4
2019-Dec-12 07:00 277 -4.4
2019-Dec-12 06:50 332 0 gusting 2 -4.4
2019-Dec-12 06:40 353 -4.4
2019-Dec-12 06:30 251 -5.0
2019-Dec-12 06:20 240 -5.6
2019-Dec-12 06:10 176 -5.0
2019-Dec-12 06:00 175 -5.0
2019-Dec-12 05:50 215 -5.0
2019-Dec-12 05:40 248 -4.4
2019-Dec-12 05:30 258 -4.4
2019-Dec-12 05:20 272 0 gusting 3 -5.0
2019-Dec-12 05:10 305 -5.0
2019-Dec-12 05:00 317 -5.0
2019-Dec-12 04:50 234 -5.6
2019-Dec-12 04:40 224 -5.6
2019-Dec-12 04:30 237 -5.6
2019-Dec-12 04:20 240 -5.6
2019-Dec-12 04:10 240 -5.6
2019-Dec-12 04:00 240 -5.6
2019-Dec-12 03:50 251 -5.0
2019-Dec-12 03:40 279 -5.6
2019-Dec-12 03:30 279 -5.6
2019-Dec-12 03:20 279 -5.6
2019-Dec-12 03:10 279 -5.6
2019-Dec-12 03:00 279 -5.6
2019-Dec-12 02:50 279 -5.6
2019-Dec-12 02:40 279 -5.0
2019-Dec-12 02:30 279 -5.6
2019-Dec-12 02:20 279 -5.0
2019-Dec-12 02:10 279 -5.0
2019-Dec-12 02:00 188 -5.0
2019-Dec-12 01:50 173 -5.0
2019-Dec-12 01:40 173 -5.0
2019-Dec-12 01:30 227 -5.0
2019-Dec-12 01:20 227 -5.0
2019-Dec-12 01:10 227 -5.0
2019-Dec-12 01:00 227 -4.4
2019-Dec-12 00:50 227 -4.4
2019-Dec-12 00:40 227 -4.4
2019-Dec-12 00:30 227 -4.4
2019-Dec-12 00:20 225 -3.9
2019-Dec-12 00:10 234 -3.9
2019-Dec-12 00:00 311 -3.9
2019-Dec-11 23:50 229 -3.9
2019-Dec-11 23:40 230 -3.9
2019-Dec-11 23:30 215 -3.9
2019-Dec-11 23:20 220 -3.9
2019-Dec-11 23:10 235 -3.9
2019-Dec-11 23:00 313 -3.9